GFSMW_250_rhum_081.txt.gz
RH
10 15 12 19 66 100 100 100 100 100 100 100 100 100 100 100 100 100 100 100 100 100 100 100 84 85 94 100 100 100 100 100 87 85 67 62 65 52 52 36 52 24 30
23 28 24 46 38 67 95 100 100 100 100 100 100 100 100 100 100 100 100 100 100 100 100 100 100 100 100 100 100 100 100 100 87 82 61 51 50 54 41 30 24 30 31
30 57 95 100 89 87 100 100 100 100 100 100 100 100 100 100 100 100 100 100 100 100 100 100 98 100 100 100 100 100 100 92 88 80 65 53 40 50 63 62 43 45 44
66 80 100 100 71 100 100 100 100 100 100 100 100 100 100 100 100 97 99 100 100 100 100 100 92 100 100 100 100 100 100 100 92 73 82 85 84 80 71 47 48 69 60
100 67 56 77 41 100 100 100 100 100 100 100 100 100 100 100 100 100 100 100 100 100 100 100 100 100 100 100 100 100 100 100 100 100 100 100 100 97 83 93 78 75 54
100 80 100 100 100 100 100 100 100 100 100 100 100 100 100 100 100 100 100 100 97 100 100 100 100 100 100 100 100 100 100 100 100 100 100 100 100 100 96 81 60 54 74
100 100 100 100 100 100 100 100 100 100 100 100 100 100 100 100 100 99 100 95 81 100 100 100 99 87 96 100 100 100 100 100 100 85 72 83 88 100 89 77 64 97 86
100 100 100 100 100 100 100 100 100 100 100 100 100 100 100 100 100 100 100 96 85 98 100 100 100 93 84 91 99 83 92 86 79 99 98 100 100 92 88 79 97 85 100
100 100 100 100 100 100 100 100 100 100 100 100 100 100 100 100 100 100 100 100 100 90 100 100 100 100 92 86 79 84 80 90 94 86 60 82 79 100 96 100 100 100 100
100 100 100 100 100 100 100 100 100 100 100 100 100 98 100 100 100 100 100 100 100 100 94 100 100 100 100 86 92 85 92 86 90 100 100 100 100 76 100 100 100 100 82
100 100 100 100 100 100 100 100 100 100 100 100 100 100 100 100 100 100 93 100 100 100 100 100 100 100 100 100 100 100 100 100 100 100 100 88 100 100 100 100 100 100 100
100 100 100 100 100 100 100 100 100 100 100 100 100 100 100 96 100 100 100 94 100 100 100 100 100 100 100 100 100 100 100 100 100 100 100 100 100 100 100 90 100 99 100
100 100 100 100 100 100 100 100 100 100 100 100 100 100 100 100 99 86 100 100 100 100 100 100 100 91 98 100 94 98 100 100 100 100 100 100 98 100 100 100 100 100 100
100 100 100 100 100 100 100 100 94 99 84 83 100 100 100 100 100 100 95 92 97 100 100 100 100 100 100 100 100 100 100 100 100 100 100 85 100 100 100 100 97 100 100
100 100 100 100 100 100 100 100 100 100 99 68 63 100 100 100 100 100 100 100 100 100 100 100 100 100 100 100 100 100 100 100 100 100 100 100 100 100 100 100 100 100 100
100 100 100 100 100 100 100 100 100 100 100 100 100 100 100 100 98 100 80 100 98 100 100 100 100 100 100 100 100 100 95 100 100 65 67 74 73 100 100 100 87 100 80
100 100 100 100 100 93 98 98 91 74 71 70 73 82 97 89 80 87 91 80 89 97 95 86 98 100 100 100 100 100 100 100 100 100 100 100 87 91 100 100 100 100 100
42 89 100 100 100 100 100 100 99 83 81 78 65 77 62 63 58 60 61 68 79 90 59 70 87 77 60 67 77 78 97 100 100 96 100 77 68 100 100 100 90 100 95
46 45 43 42 38 33 56 97 100 97 100 100 100 100 97 94 90 82 88 91 80 72 66 65 54 60 99 98 99 91 67 91 93 48 88 100 100 100 100 100 100 100 98
33 30 33 36 36 40 42 43 45 56 56 70 87 81 93 86 91 96 99 100 100 100 92 85 100 100 100 100 100 95 100 97 100 100 99 94 97 100 100 100 94 92 97
55 53 50 42 42 37 29 23 24 27 34 40 37 40 54 57 43 53 71 73 73 80 84 100 98 100 100 96 100 100 100 92 100 100 100 100 99 100 100 100 100 100 100
72 61 52 46 41 34 28 20 16 17 17 20 25 33 36 35 34 29 24 19 20 27 50 59 72 80 61 76 89 100 100 94 100 100 100 100 100 100 100 99 100 98 76
55 58 54 43 41 34 24 21 16 13 11 11 10 13 16 19 22 22 24 25 23 20 18 16 16 25 46 51 54 64 71 70 79 100 99 78 75 90 91 91 80 72 51
61 58 50 49 49 34 20 13 11 9 8 7 7 6 6 7 8 11 14 13 14 16 22 22 22 21 20 18 17 17 19 26 42 56 61 60 49 39 39 41 36 30 26
59 56 49 45 40 21 10 7 6 5 5 4 4 4 3 4 4 4 5 7 9 10 9 10 15 18 21 22 21 22 23 23 23 25 27 27 31 32 37 40 35 33 33
49 48 40 30 17 8 5 4 4 4 4 3 3 3 3 3 3 3 4 4 4 5 6 8 9 10 12 14 17 21 26 29 30 26 26 30 36 45 49 49 52 54 51

GFSMW_250_rhum_084.txt.gz
RH
8 7 8 10 13 17 21 34 100 100 100 100 100 100 100 100 100 100 100 100 100 100 100 100 100 100 100 100 100 100 100 100 86 94 98 100 100 100 100 98 88 83 68
6 7 8 9 13 17 27 100 100 100 100 100 100 100 100 100 100 100 100 100 100 100 100 100 99 100 100 100 100 94 95 100 97 100 100 100 100 100 100 97 86 69 63
5 6 8 10 15 48 75 100 100 100 100 100 100 100 100 100 100 100 100 100 100 100 100 100 100 100 100 100 100 100 100 100 100 100 100 100 100 100 100 100 89 69 49
5 7 10 12 15 26 73 100 100 100 100 100 100 100 100 100 100 100 100 100 100 100 100 100 100 100 100 100 100 100 100 98 100 100 100 100 99 100 99 84 62 46 45
6 8 14 20 22 29 54 100 100 100 100 100 100 100 100 100 100 100 100 100 100 100 100 100 100 100 100 100 99 91 85 95 86 100 100 100 100 97 76 75 61 67 61
10 17 60 87 66 100 85 71 88 84 90 100 100 100 100 100 100 100 100 100 100 99 94 100 98 100 100 100 100 100 100 99 94 94 100 100 100 100 100 88 91 82 76
48 84 100 100 100 100 51 49 73 100 100 100 100 100 100 100 100 100 100 100 100 80 90 100 100 100 100 100 100 100 100 100 100 100 100 100 98 89 90 92 85 90 78
100 100 100 100 94 100 83 100 100 100 100 100 100 100 100 100 100 100 100 100 100 100 96 80 78 80 100 100 100 100 99 100 100 100 100 100 100 100 100 96 93 96 73
100 100 100 100 100 100 100 100 100 100 100 100 100 100 100 100 100 100 100 100 100 100 100 100 100 97 94 98 90 99 100 100 100 100 100 100 100 100 100 92 100 68 94
100 100 100 100 100 100 100 100 100 100 100 100 100 100 100 99 100 100 100 100 100 99 100 99 100 99 100 100 100 87 96 92 100 100 100 100 100 100 100 100 83 88 100
100 100 100 100 100 100 100 100 100 100 100 100 100 100 100 100 100 100 100 100 100 100 100 98 98 85 92 85 91 100 89 100 100 100 100 100 98 99 96 100 100 82 100
100 100 100 100 100 100 100 100 100 100 100 100 100 100 100 100 100 100 100 100 100 100 100 100 100 100 100 100 100 100 100 100 100 99 100 100 94 99 94 97 100 99 100
100 100 100 100 100 100 100 100 100 100 100 100 100 100 100 100 100 100 100 100 100 100 100 100 100 100 100 100 100 100 100 100 100 100 100 100 100 100 100 100 100 100 100
100 100 100 100 100 100 100 100 100 100 100 100 100 100 100 100 100 100 100 100 100 100 98 100 100 100 100 100 100 99 100 100 100 100 100 100 100 100 100 100 100 100 100
100 100 100 100 100 100 100 100 100 100 100 100 100 100 100 100 100 100 100 100 100 100 100 100 100 100 100 100 100 100 100 100 100 100 100 100 100 100 99 98 100 100 90
100 100 100 100 100 100 100 100 100 100 100 100 100 100 100 100 100 100 100 100 100 100 100 98 100 100 100 100 100 100 100 100 88 85 100 88 98 85 100 100 100 90 100
96 100 100 99 100 100 100 100 100 100 100 100 100 100 100 100 100 100 94 90 100 100 100 100 100 100 100 92 100 100 100 100 100 87 100 100 100 99 100 100 100 96 89
76 100 100 100 100 100 100 100 100 100 100 100 100 100 100 100 96 96 97 96 99 84 80 100 100 100 100 100 100 100 100 100 100 100 100 100 100 100 100 100 100 100 100
55 57 78 100 100 100 100 100 100 100 100 100 100 100 100 100 100 100 100 100 99 100 93 100 100 100 100 100 100 100 97 99 100 100 100 100 100 100 100 100 100 100 97
29 42 40 40 43 51 72 91 90 92 93 95 97 99 99 97 98 94 90 93 88 86 72 58 56 60 62 56 53 72 90 100 100 81 100 100 100 86 81 82 74 99 98
41 35 36 37 34 35 37 36 37 41 38 45 56 76 84 86 80 81 75 68 71 69 68 78 83 74 77 88 73 84 70 65 84 100 100 100 87 77 69 62 61 60 95
43 45 45 41 39 34 31 32 24 22 24 25 29 35 38 44 51 58 58 37 31 35 35 44 42 46 56 69 68 66 70 67 67 58 54 68 76 69 86 100 100 98 100
51 52 46 49 37 36 30 27 21 15 12 13 12 12 14 20 25 26 26 25 24 22 19 15 14 20 28 44 49 60 45 40 54 61 61 68 80 87 76 58 72 93 100
50 56 51 40 37 33 29 21 14 10 8 7 7 7 6 7 8 7 11 13 14 17 18 20 19 19 20 18 16 15 15 16 19 23 25 30 36 20 21 29 33 45 52
47 52 48 38 37 32 19 12 6 4 4 4 4 4 3 3 3 3 3 4 4 5 5 7 11 14 15 15 15 16 19 20 21 22 22 21 23 25 28 31 39 41 43
45 42 38 32 28 16 10 5 3 3 3 3 3 3 3 3 3 2 3 2 2 3 3 3 3 4 5 6 8 9 10 14 18 19 21 22 25 31 41 50 51 55 61

GFSMW_250_rhum_087.txt.gz
RH
8 9 12 9 11 8 9 15 20 22 77 100 100 100 100 100 100 100 99 100 100 100 100 100 100 100 100 100 100 100 100 100 100 100 100 100 100 76 71 77 70 91 100
8 8 9 10 11 11 12 15 19 22 25 53 96 100 100 100 100 100 100 100 84 100 100 100 100 100 100 100 100 100 100 100 92 100 80 88 85 88 81 84 100 93 89
6 8 10 12 12 15 13 15 20 22 41 95 73 98 100 100 100 100 100 100 93 99 100 100 100 100 100 100 100 100 100 100 100 100 100 97 100 100 98 100 100 98 100
6 6 9 11 14 15 12 15 19 21 27 100 100 100 100 100 100 100 100 100 100 100 100 100 100 100 100 100 100 100 100 100 100 100 100 100 100 84 64 73 85 77 75
5 6 8 9 10 11 12 14 16 19 39 90 99 100 100 100 100 100 100 100 100 100 100 100 100 100 100 100 100 100 100 91 100 84 62 71 99 94 80 93 96 96 71
5 6 8 8 9 10 11 14 16 35 72 45 70 96 87 100 100 100 100 100 100 100 100 100 100 100 100 100 98 100 100 100 100 100 100 100 100 96 97 86 69 75 76
5 7 8 10 10 11 12 16 44 40 61 84 100 100 100 100 100 100 100 100 100 100 100 100 100 100 100 100 96 100 100 99 99 100 100 97 100 94 100 100 81 96 83
10 13 16 17 26 36 40 50 99 100 100 100 100 100 100 100 100 100 100 100 100 100 100 100 100 100 100 100 100 100 100 100 100 100 100 99 100 100 100 100 100 100 100
44 54 100 94 88 98 92 100 100 100 100 100 100 100 100 100 100 100 100 100 100 100 100 100 100 100 100 100 100 100 94 98 100 100 100 100 100 100 100 100 100 100 100
100 100 100 100 100 100 100 100 100 100 100 100 100 100 100 100 100 100 100 100 98 100 100 100 100 100 100 94 100 100 100 100 100 100 100 100 100 100 100 100 100 100 100
100 100 100 100 100 100 100 100 100 100 100 100 100 100 100 100 100 100 100 100 100 100 100 100 92 99 100 100 95 100 100 100 100 100 100 100 100 100 100 100 100 100 100
100 100 100 100 100 100 100 100 100 100 100 100 100 100 100 100 100 100 100 100 100 100 100 100 99 99 100 83 100 100 100 99 90 100 100 100 100 100 100 98 100 100 79
100 100 100 100 100 100 100 100 100 100 100 100 100 100 100 100 100 100 100 88 94 98 100 100 100 100 100 96 94 99 100 100 94 100 98 92 85 86 76 65 66 76 64
100 100 100 100 100 100 100 100 100 100 100 100 100 100 100 100 100 100 100 94 93 91 100 100 100 100 100 100 98 98 91 96 92 94 81 76 80 81 70 87 78 97 80
100 100 98 100 100 100 100 100 100 100 100 100 100 100 100 100 100 100 100 100 100 100 100 100 100 99 100 100 100 100 100 99 88 90 79 96 89 100 100 83 90 86 72
69 96 96 98 99 93 100 100 100 100 100 100 100 100 100 100 100 100 100 100 100 100 100 100 100 100 100 100 99 100 100 100 99 100 100 100 100 100 92 100 100 100 94
90 84 83 88 97 97 99 100 100 100 100 99 94 99 100 100 100 100 100 100 100 100 100 100 100 100 100 100 100 100 100 100 100 100 100 100 100 100 100 100 91 97 100
41 46 47 63 100 100 92 83 80 76 81 93 99 100 95 92 100 100 100 100 100 100 100 100 100 100 100 100 100 100 100 99 100 100 100 100 100 100 100 100 100 100 100
39 39 45 50 70 100 100 100 100 100 100 92 76 74 84 100 95 96 100 100 100 100 100 100 100 100 100 100 100 100 100 100 100 100 100 100 91 100 100 100 100 100 97
41 45 44 48 50 56 48 50 52 57 62 73 86 99 85 72 63 72 77 76 87 88 94 100 96 100 100 99 99 100 100 100 100 100 100 100 100 100 98 85 100 100 100
45 50 48 46 42 38 37 36 33 35 36 36 40 49 50 57 60 48 45 55 59 57 57 57 78 81 68 85 81 91 96 100 100 97 100 100 100 100 100 99 100 95 91
60 57 55 50 48 47 42 42 40 35 32 31 29 23 26 32 38 41 51 36 29 26 33 46 52 58 63 66 58 57 76 72 80 80 84 98 94 97 92 92 88 86 89
54 54 53 55 51 43 42 37 34 28 24 19 15 10 10 11 12 20 23 22 31 28 34 37 40 44 31 28 35 42 44 33 50 52 48 58 61 59 61 45 52 33 31
54 51 54 52 52 44 40 32 24 18 12 8 6 4 4 4 4 4 5 6 7 11 16 22 22 21 20 21 23 20 19 18 15 17 24 30 42 44 44 23 20 19 23
52 50 51 56 50 47 38 33 25 11 6 3 3 3 3 3 3 3 3 3 3 3 3 4 6 8 7 16 21 17 14 13 16 19 26 28 24 22 22 23 26 26 26
54 54 55 57 51 44 37 32 18 6 4 3 3 3 4 4 4 4 4 3 3 3 3 3 3 3 3 4 4 4 4 5 11 19 17 10 16 25 30 30 30 33 36

GFSMW_250_rhum_090.txt.gz
RH
8 9 10 11 13 16 17 18 20 14 16 24 17 16 91 100 100 100 100 100 100 100 100 100 100 100 100 100 100 100 100 100 100 100 100 100 98 100 100 100 87 73 70
6 8 9 9 11 14 14 17 16 18 20 22 16 17 58 100 100 99 100 100 100 94 100 100 99 100 100 100 100 100 100 100 100 100 100 100 100 96 92 100 85 65 85
6 8 9 9 10 12 11 12 14 18 17 18 14 20 33 100 100 100 100 100 100 100 100 100 100 100 100 100 100 100 100 100 100 100 100 100 100 100 99 100 100 87 72
5 6 7 8 8 8 10 14 14 13 15 15 19 27 29 42 100 100 100 100 100 100 100 100 100 100 100 100 100 100 100 100 100 100 100 100 100 100 99 85 68 70 63
4 4 5 6 6 9 12 13 14 13 18 16 20 31 32 37 45 100 100 100 100 100 100 100 90 99 100 91 100 100 100 100 100 100 100 94 95 100 100 100 74 100 71
4 4 5 6 9 13 15 16 15 17 23 24 24 26 40 79 100 100 100 100 100 100 100 100 96 79 91 92 92 100 92 98 98 100 100 86 84 94 97 100 86 57 79
6 8 9 10 12 17 21 20 22 21 28 28 23 24 94 100 100 100 100 100 100 100 100 100 100 99 91 100 84 94 99 98 86 100 87 96 100 100 100 100 100 99 82
6 6 8 10 13 16 19 22 21 20 21 21 20 47 46 100 100 100 100 100 100 100 100 100 100 100 100 100 100 93 100 100 100 99 98 100 100 99 100 100 100 99 99
5 6 7 9 10 15 18 16 16 16 17 20 32 60 100 100 100 100 100 100 100 100 100 100 100 100 100 100 100 100 100 100 100 100 100 100 100 100 100 100 100 100 100
15 14 17 27 53 64 50 51 59 70 60 37 86 100 100 100 100 100 100 100 100 100 100 100 100 100 100 100 100 100 100 100 99 100 100 100 100 100 100 100 100 100 100
49 67 79 57 71 97 100 88 100 100 100 94 100 100 100 100 100 100 100 100 100 100 100 98 100 100 100 100 100 100 100 100 96 100 100 100 98 100 100 100 100 100 100
90 100 100 100 93 92 100 100 100 100 100 100 100 100 100 100 100 100 100 100 100 100 100 100 100 100 100 100 100 100 100 100 100 96 100 100 100 100 100 100 100 100 100
59 83 99 100 93 89 100 100 100 100 100 100 100 100 100 100 100 100 100 100 100 100 100 100 100 100 100 100 100 99 100 100 100 99 100 100 100 100 98 100 100 100 100
53 58 67 83 83 80 95 100 100 100 100 100 100 100 100 100 100 100 100 100 100 100 100 100 100 100 100 100 100 100 100 100 92 98 92 79 89 100 100 93 64 63 66
59 54 57 56 62 73 74 76 85 99 100 100 100 100 100 100 100 100 100 100 100 100 100 100 100 100 100 99 100 94 100 98 94 89 94 99 90 82 71 91 81 83 70
57 55 58 66 74 60 65 63 74 75 79 81 100 100 100 100 100 100 100 100 100 100 100 100 100 100 100 100 99 84 89 100 91 86 85 89 76 74 87 86 79 82 76
81 77 78 90 85 90 91 78 75 78 82 87 78 82 89 100 100 100 100 100 100 100 100 100 100 100 100 100 100 93 96 91 99 100 86 74 87 98 100 100 100 94 90
64 56 55 54 55 47 46 52 77 82 87 94 94 94 82 73 72 80 86 100 100 100 100 100 100 100 100 100 100 100 100 100 100 100 100 88 100 94 100 100 99 100 100
54 56 52 53 52 52 51 50 51 52 60 70 56 63 97 100 98 93 88 68 62 73 78 88 94 90 100 100 100 100 100 100 100 100 100 100 100 100 100 100 100 100 100
39 41 46 47 49 51 53 52 53 53 56 53 42 37 36 46 48 54 63 55 68 74 64 58 58 62 80 94 88 95 81 97 100 100 100 100 100 100 100 100 100 100 100
50 49 50 49 51 54 58 57 59 62 62 59 50 43 37 32 27 25 26 34 34 33 32 28 32 49 49 52 64 72 69 71 96 98 100 100 100 100 100 100 100 100 100
46 46 46 52 53 54 57 63 64 66 67 62 53 46 38 26 16 13 12 13 18 18 25 28 26 25 20 18 22 28 44 38 49 69 73 89 96 90 87 80 81 91 100
52 54 58 63 66 65 68 70 75 74 73 63 57 39 22 9 5 4 3 4 4 5 7 9 14 16 16 18 22 21 16 16 19 19 21 36 43 34 32 33 49 62 53
71 66 72 72 72 69 73 71 76 72 68 62 50 27 9 4 4 4 3 3 3 3 3 3 3 4 4 6 9 11 18 21 22 25 25 24 23 19 19 21 26 34 45
69 70 75 79 75 72 71 73 69 65 65 59 40 14 5 4 4 4 4 4 4 4 4 4 4 3 3 3 3 3 4 7 10 18 28 29 25 30 39 47 44 38 38
79 78 80 74 75 71 67 73 66 63 63 50 28 8 5 5 4 4 3 3 3 3 3 3 4 4 5 5 4 4 3 3 3 4 5 8 9 17 29 31 32 31 39

GFSMW_250_rhum_093.txt.gz
RH
5 5 6 6 10 12 14 10 10 16 20 19 23 28 29 28 29 26 26 35 33 30 53 60 85 100 100 100 100 100 100 100 100 100 100 100 100 100 100 100 100 100 100
3 4 4 6 9 9 10 9 11 14 16 19 23 23 24 25 26 27 30 33 30 52 84 66 96 100 100 100 100 100 100 100 100 100 100 100 100 100 100 100 100 100 100
3 3 4 5 6 7 8 10 13 14 17 19 19 21 20 22 24 24 32 41 35 48 97 100 100 100 100 100 100 100 100 100 100 97 100 100 100 100 100 100 100 100 100
2 3 3 4 4 6 8 10 12 14 17 17 18 18 20 20 23 20 42 42 83 99 100 100 100 100 100 100 100 100 100 100 100 100 100 100 100 100 100 100 100 100 91
3 4 4 4 4 6 9 11 13 14 15 20 25 23 19 19 14 24 38 76 100 100 100 100 100 99 100 100 94 100 100 96 100 100 100 100 100 98 96 88 97 100 80
3 3 3 3 4 5 6 8 13 17 18 18 18 15 12 20 23 25 36 94 100 100 100 100 100 100 100 100 100 100 100 100 100 100 100 100 100 100 91 83 92 87 100
3 3 4 4 5 6 6 7 8 9 9 10 11 13 19 22 22 32 46 65 100 100 100 100 100 100 100 99 100 100 100 100 100 100 100 100 100 100 100 100 93 72 78
4 4 4 5 6 7 8 9 9 10 11 12 14 18 20 24 35 40 64 76 100 100 100 100 100 100 100 100 100 100 100 100 100 100 89 92 100 100 96 76 86 97 92
7 8 8 8 9 10 13 13 12 14 16 17 20 25 26 28 32 48 62 100 100 100 100 100 100 100 100 100 100 100 84 84 75 74 66 54 62 58 60 91 84 89 100
4 6 8 10 12 14 18 20 24 22 26 29 32 36 38 39 44 42 57 100 100 100 100 100 100 100 100 100 100 100 100 100 100 95 99 94 100 100 82 89 100 100 90
4 4 5 7 10 14 19 27 39 44 41 31 41 45 41 34 61 90 100 100 100 100 100 100 100 100 100 100 100 100 100 100 100 100 100 100 100 96 100 100 100 97 100
5 5 6 8 13 37 43 58 64 79 83 78 61 72 71 64 100 100 100 100 100 100 100 100 100 100 100 100 100 100 100 100 100 100 100 100 100 100 100 100 100 100 100
15 13 23 19 23 36 41 51 67 74 91 100 100 100 100 100 100 100 100 100 100 100 100 100 100 100 100 100 100 100 100 100 100 100 100 100 99 100 100 100 100 100 100
33 31 34 35 49 51 65 69 56 71 75 94 98 100 100 100 100 100 100 100 100 100 100 100 100 100 100 100 100 100 100 100 100 100 100 100 100 100 100 100 100 100 100
51 50 47 49 66 66 72 65 63 70 67 64 69 91 89 88 95 100 100 100 100 100 100 100 100 100 100 100 100 100 100 100 100 100 100 100 100 88 100 100 100 100 100
82 68 60 72 75 86 85 88 90 89 100 100 94 100 100 96 92 82 90 100 100 100 100 100 100 100 100 100 100 100 100 100 100 100 100 100 100 100 100 100 100 100 100
84 93 100 87 79 95 100 90 83 60 55 62 75 81 99 100 100 100 100 89 96 100 100 100 100 100 100 100 100 100 100 100 100 100 100 100 100 100 100 100 100 100 100
55 65 64 76 82 62 54 52 52 52 53 54 55 56 56 55 57 66 68 89 78 97 100 100 100 100 100 100 100 100 100 100 100 100 100 100 100 100 100 100 100 100 100
72 68 65 60 57 54 53 53 54 57 60 66 69 69 74 74 72 65 64 66 66 66 61 59 67 85 92 90 89 91 97 90 92 84 89 100 100 100 100 100 100 100 100
46 49 47 47 49 50 52 51 55 60 63 63 63 65 65 59 63 69 67 57 50 47 40 35 38 39 38 45 56 80 90 83 88 92 100 88 94 99 100 100 100 100 100
37 39 41 46 53 59 59 59 61 62 60 60 68 66 62 65 65 65 56 56 42 34 25 23 24 27 25 22 17 17 18 27 35 40 66 87 94 100 95 99 100 100 100
49 51 56 60 64 66 64 62 60 61 61 69 67 66 67 70 68 66 58 40 25 14 10 8 7 7 8 12 17 23 22 19 13 18 18 21 29 55 96 97 95 92 91
52 55 54 51 51 52 56 67 70 64 64 67 67 68 69 70 67 61 42 19 8 4 4 4 4 4 3 3 3 4 6 10 13 20 21 19 18 20 25 34 37 43 39
64 63 66 68 64 65 57 54 64 70 72 77 71 66 70 69 62 46 20 7 4 4 4 4 4 4 4 4 3 3 3 3 3 5 6 10 18 19 19 19 23 24 25
74 80 82 77 73 75 69 71 76 74 70 72 70 64 65 62 54 27 9 5 4 3 3 3 3 3 3 3 3 3 4 4 4 4 3 4 4 6 10 19 24 26 27
99 98 96 92 86 80 74 77 75 71 66 68 63 61 65 60 35 11 6 4 3 3 2 2 2 2 2 2 2 2 3 3 4 4 5 5 5 4 4 5 6 9 13

GFSMW_250_rhum_096.txt.gz
RH
3 3 4 4 5 8 10 12 16 18 17 10 13 18 26 24 25 27 22 20 17 22 24 33 53 67 36 27 37 81 100 100 95 100 97 100 100 100 100 100 100 100 100
2 2 2 3 4 5 7 10 12 14 11 10 12 14 20 25 25 28 24 24 24 24 28 25 38 55 52 30 44 56 89 69 100 82 100 100 100 100 100 100 100 100 100
2 2 2 2 3 4 5 7 9 11 11 12 14 13 19 26 27 32 32 30 27 24 27 26 26 41 53 52 46 82 100 100 100 100 100 100 100 100 100 100 100 98 100
2 2 2 2 2 3 4 4 6 7 9 12 14 16 21 26 28 27 26 23 26 32 32 22 30 36 39 56 69 98 100 100 100 100 100 100 100 100 100 100 100 100 100
2 2 2 2 2 3 3 3 4 5 5 7 12 17 22 26 24 23 22 22 24 29 32 26 41 32 47 75 100 95 100 100 100 100 100 100 100 100 100 100 100 97 100
2 2 2 2 3 3 3 4 4 6 6 7 9 13 18 22 23 26 22 19 24 34 27 36 34 38 46 81 100 100 100 100 100 100 100 100 100 100 100 100 100 100 100
2 2 3 3 3 3 4 4 5 5 5 6 6 12 19 23 21 19 23 29 31 29 24 22 44 50 63 100 100 100 100 100 100 100 100 100 100 100 100 100 99 100 100
3 2 3 3 3 4 4 5 5 6 6 7 9 11 14 19 20 23 21 18 16 17 29 50 93 100 100 100 100 100 100 100 100 100 100 100 100 95 100 100 100 100 100
4 3 4 4 4 5 5 5 5 6 7 7 9 10 10 10 10 12 14 21 29 32 51 100 100 100 100 100 100 100 100 100 100 100 100 100 100 100 100 100 100 100 100
8 9 9 8 8 8 8 8 9 9 9 10 11 11 12 13 16 17 24 56 79 85 100 100 100 100 100 100 100 100 100 100 100 100 100 100 100 100 100 100 100 100 100
4 5 6 9 11 13 15 15 16 17 19 22 25 25 26 24 33 37 41 68 94 98 100 100 100 100 100 100 100 100 100 100 100 100 100 98 94 90 89 77 72 63 75
9 21 25 16 8 14 22 30 38 28 35 29 33 45 61 64 55 58 61 62 83 100 100 100 100 100 100 100 100 100 100 100 100 100 100 100 100 100 100 100 100 100 89
19 22 39 41 48 41 41 47 60 61 45 51 54 52 73 82 83 85 83 79 75 84 100 100 100 100 100 100 100 100 100 100 100 100 100 100 100 100 100 100 100 100 90
53 48 54 60 64 64 70 63 63 64 67 75 83 92 80 81 80 85 85 88 100 100 100 100 100 100 100 100 100 100 100 100 100 100 100 100 100 100 100 100 98 100 100
95 92 79 71 75 67 72 83 92 94 97 94 96 90 89 99 100 100 95 96 94 100 100 100 100 100 100 100 100 100 100 100 100 100 100 100 100 100 100 100 100 100 100
65 78 80 85 87 96 86 92 97 97 97 90 100 100 100 100 100 99 100 100 96 97 91 100 100 100 100 100 100 100 100 100 100 100 100 100 100 100 100 100 100 100 100
58 54 63 58 66 75 75 78 68 49 49 52 54 55 53 55 59 62 70 77 90 99 100 97 95 100 100 100 100 100 100 100 100 100 100 100 100 100 100 100 100 100 100
51 49 49 48 51 56 52 50 55 56 54 52 52 54 58 63 66 70 70 70 68 66 62 67 72 76 87 83 87 96 100 100 100 100 100 100 100 100 100 100 100 100 100
57 56 58 61 61 60 59 58 57 57 60 60 61 64 66 66 70 70 69 69 66 66 66 72 72 67 67 64 60 50 49 80 96 100 100 97 98 100 100 100 100 100 100
53 52 54 56 56 57 65 66 62 60 62 61 60 57 56 52 53 52 53 54 56 55 52 48 45 44 42 43 49 46 48 45 34 35 59 70 68 87 86 92 94 100 100
57 55 55 51 53 54 52 48 48 47 47 43 45 55 58 55 52 53 57 58 57 58 58 57 54 47 41 38 32 27 27 28 32 33 25 21 19 21 54 69 84 91 100
56 56 59 57 58 55 51 50 48 52 53 54 57 56 50 48 50 49 62 62 52 51 52 51 47 40 30 18 10 7 6 5 5 6 9 16 22 22 22 26 25 53 80
57 62 59 58 60 67 62 58 54 57 55 51 49 57 52 48 50 50 51 54 47 47 52 48 42 30 13 6 4 4 3 3 3 3 3 4 4 4 11 19 22 22 21
75 73 68 68 70 67 67 69 77 80 70 73 74 65 58 52 53 55 52 50 51 50 48 38 21 9 6 4 4 3 3 3 3 3 3 4 4 4 4 4 5 10 17
86 82 74 73 73 74 82 81 80 79 76 76 74 64 52 52 55 54 52 49 49 46 33 14 6 5 4 3 3 3 2 2 2 2 2 3 3 3 4 5 5 4 5
80 77 71 73 75 78 83 85 88 88 83 88 76 67 57 56 48 52 53 50 44 31 10 5 4 3 3 3 2 2 2 2 2 2 2 2 2 3 3 4 4 5 5

GFSMW_250_rhum_099.txt.gz
RH
3 2 2 2 2 2 3 5 7 8 10 12 14 18 16 14 13 26 35 31 29 32 38 37 38 32 30 35 39 47 42 38 40 43 36 45 99 100 100 100 100 100 100
2 2 2 2 2 2 2 3 5 7 10 11 11 12 12 11 14 21 25 25 31 29 31 39 36 34 36 35 39 49 41 38 32 34 43 55 92 100 100 100 100 100 100
2 2 2 2 2 2 2 2 3 5 6 7 8 9 10 11 13 17 21 25 28 26 23 29 30 32 31 45 48 47 40 35 38 31 38 75 100 100 100 100 100 100 100
3 2 2 2 2 2 2 2 2 3 3 4 6 8 10 12 12 14 18 24 29 23 19 23 29 32 28 41 48 40 42 49 32 42 44 77 100 100 100 100 100 100 100
3 2 2 2 2 2 2 2 2 2 3 3 4 6 8 11 15 15 20 26 31 27 24 21 28 32 27 26 34 31 44 60 41 36 64 100 100 100 100 100 100 100 100
3 3 3 3 2 2 3 2 2 2 3 3 4 5 6 9 13 14 15 19 28 25 21 24 28 27 26 26 28 31 41 56 46 39 69 100 100 100 100 100 100 100 100
2 2 2 2 2 2 2 3 3 3 3 4 4 5 5 6 6 6 7 8 10 14 18 25 28 33 40 38 36 32 35 41 36 55 89 100 100 100 100 100 100 100 100
3 3 3 3 3 3 3 3 3 3 4 4 4 5 5 7 7 7 8 9 11 13 16 22 36 41 50 50 47 46 33 32 59 97 100 100 100 100 100 100 100 100 100
3 3 3 4 3 4 4 4 4 4 4 5 6 7 7 8 9 9 9 10 16 23 36 41 47 48 40 32 30 48 67 81 99 100 100 100 100 100 100 100 100 100 100
7 6 5 5 5 5 5 5 5 5 6 6 7 7 8 9 10 11 14 18 23 27 31 30 27 24 29 41 74 95 100 100 100 100 100 100 100 100 100 100 100 100 100
5 7 8 10 10 11 10 9 8 7 8 8 10 9 10 10 10 11 13 15 17 19 22 32 47 55 89 94 96 100 100 100 100 100 100 100 100 100 100 98 100 99 98
30 21 19 12 13 14 18 18 18 20 23 22 27 27 29 31 25 20 30 28 31 38 71 97 99 91 100 100 100 100 100 100 100 100 100 100 100 100 100 100 100 100 100
36 50 52 57 48 59 40 42 51 51 46 52 51 54 58 70 71 71 67 74 75 77 83 100 100 100 100 100 100 100 100 100 100 100 100 100 100 100 100 100 100 100 100
80 78 65 71 66 72 71 86 82 81 86 87 83 87 83 86 90 86 95 100 100 99 97 100 100 100 100 100 100 100 100 100 100 100 100 100 100 100 100 100 100 100 100
60 67 72 78 82 88 98 97 98 95 92 94 93 94 76 69 88 93 98 89 85 92 100 96 100 100 100 100 100 100 100 100 100 100 100 100 100 100 100 100 100 100 100
44 51 54 56 60 70 77 74 75 79 83 59 60 61 60 60 60 59 62 61 74 75 74 76 87 93 90 100 100 100 100 100 100 100 100 100 100 100 100 100 100 100 100
46 45 47 46 45 44 46 45 44 44 48 46 48 50 51 50 51 52 51 52 54 56 60 70 65 63 74 78 84 83 92 100 100 100 100 100 100 100 100 100 100 100 100
50 48 48 50 50 51 50 52 51 50 49 50 52 52 57 58 57 55 57 60 65 66 67 66 63 60 57 53 48 49 58 75 87 97 100 100 100 100 100 100 100 100 100
51 52 54 53 55 56 56 59 62 65 65 67 69 69 69 70 69 65 64 61 63 64 62 63 62 65 63 55 52 48 45 46 46 51 57 76 98 100 100 95 93 100 100
74 82 85 82 78 76 76 76 79 75 75 69 64 61 60 58 56 54 54 58 59 61 59 54 63 55 53 56 62 59 57 56 56 49 46 39 40 45 62 64 75 73 77
71 72 72 71 66 65 64 59 58 58 56 52 53 53 52 50 47 48 45 44 46 46 45 45 41 39 43 44 43 41 44 49 51 53 47 45 48 48 46 44 38 34 46
64 61 58 57 58 59 58 58 54 51 49 51 56 58 55 48 47 50 49 55 48 47 42 40 41 32 30 31 33 32 33 33 32 30 32 33 23 14 11 10 13 17 21
68 65 64 63 65 66 65 65 69 74 71 69 64 64 69 67 56 54 56 56 46 39 41 44 44 48 40 34 30 29 29 30 29 23 11 7 5 4 4 4 4 4 4
67 65 61 65 71 78 80 75 69 67 65 56 52 49 46 44 44 45 44 52 50 47 46 37 34 29 30 30 29 28 26 17 7 5 4 4 3 2 2 2 2 2 3
79 75 83 89 78 65 66 62 54 50 50 47 42 41 40 39 45 47 45 45 47 37 43 35 27 26 25 27 28 22 9 5 4 3 3 3 2 2 2 2 2 2 2
79 83 83 79 75 74 73 68 58 52 51 47 42 38 32 29 27 33 44 45 43 42 28 19 15 19 22 23 14 7 4 3 3 3 3 3 3 2 2 2 2 2 2

GFSMW_250_rhum_102.txt.gz
RH
6 6 6 5 4 3 3 4 3 4 6 6 6 12 18 19 20 15 18 16 15 17 22 31 52 58 63 57 48 47 52 51 38 34 40 36 38 46 50 46 52 94 100
6 6 5 4 3 2 2 2 2 2 3 4 4 6 8 10 11 13 11 9 10 13 17 29 37 38 64 58 45 46 44 44 49 44 40 44 41 38 39 43 47 94 100
5 4 4 3 3 2 2 3 2 2 3 3 3 3 5 6 7 8 11 10 9 10 13 18 23 28 34 54 49 43 38 38 50 53 44 39 53 48 35 38 40 49 83
3 3 3 3 3 3 3 3 3 2 3 3 3 3 4 5 6 6 7 6 7 9 11 16 18 19 21 22 28 41 42 32 45 51 52 45 52 48 45 36 42 59 100
3 3 3 3 3 3 3 3 3 3 3 3 4 4 4 4 5 5 6 7 7 8 10 12 13 15 17 19 23 26 28 35 46 52 44 46 52 55 40 48 52 56 100
3 3 3 3 3 3 3 3 3 3 3 4 4 4 4 4 4 4 4 5 6 9 12 14 16 19 23 21 24 32 36 36 38 49 50 56 60 67 50 52 55 72 100
3 3 3 3 3 3 3 3 3 3 3 4 4 4 4 4 4 4 4 5 5 6 9 18 22 24 28 29 32 32 38 45 44 46 61 55 51 58 64 66 62 74 100
4 3 3 3 3 3 3 3 4 4 4 4 4 5 6 7 6 6 6 6 6 8 10 15 23 28 30 34 38 44 46 44 54 48 50 53 62 70 64 62 60 94 100
7 5 5 4 4 4 4 4 4 4 4 4 5 5 5 6 6 7 7 7 8 8 10 11 12 12 13 14 13 15 19 29 34 38 46 49 54 59 52 46 67 100 100
12 10 7 6 5 5 5 5 5 5 5 6 6 6 6 6 7 8 8 8 9 9 9 9 9 10 11 13 18 24 30 47 55 68 66 55 47 37 42 71 100 100 100
13 13 14 15 15 13 11 8 7 7 8 8 8 9 10 10 10 10 10 10 10 11 12 13 14 17 21 34 44 49 59 61 60 61 59 62 71 92 100 100 100 100 100
36 31 16 15 16 13 14 18 19 19 18 18 17 16 14 15 15 14 14 12 13 16 14 18 21 26 40 56 60 78 70 76 74 68 89 100 100 100 100 100 100 100 100
58 63 56 57 56 44 34 36 32 46 46 49 56 60 58 60 62 66 72 64 58 67 63 50 47 52 60 81 99 78 74 89 99 100 100 100 100 100 100 100 100 100 100
59 52 54 66 76 78 78 76 77 76 72 72 74 86 91 88 83 75 76 91 96 84 89 99 98 98 100 100 100 100 100 100 100 100 100 100 100 100 100 100 100 100 100
44 48 52 57 60 58 61 60 70 68 66 72 74 72 72 68 63 61 69 73 71 77 84 90 91 92 94 100 100 100 100 100 100 100 100 100 100 100 100 100 100 100 100
50 52 53 51 47 46 49 49 48 51 51 56 57 51 49 51 51 51 48 48 56 72 76 84 85 77 72 98 93 90 100 100 100 100 100 100 100 100 100 100 100 100 100
41 42 43 44 44 45 45 46 46 48 50 49 48 48 45 44 45 44 45 47 48 48 48 45 46 48 48 52 56 55 59 64 78 94 100 100 98 100 100 100 100 100 100
48 47 47 48 50 50 50 51 52 50 49 48 51 54 56 57 57 58 55 54 53 53 52 48 44 43 41 44 47 45 44 44 42 42 49 68 84 90 97 100 100 100 96
52 52 56 60 64 66 70 72 70 65 62 68 64 62 58 58 58 57 58 56 54 55 58 64 65 64 62 61 61 62 63 61 56 50 48 45 44 43 48 58 62 80 93
64 68 69 70 69 70 70 67 66 68 69 69 68 68 69 68 71 70 70 66 65 65 64 64 66 68 67 65 64 65 68 67 64 65 67 62 60 58 56 51 51 42 41
62 63 64 66 65 62 62 65 68 70 69 64 60 58 55 54 53 52 47 45 44 46 48 46 47 46 47 52 52 53 50 54 53 57 57 56 63 64 62 57 57 55 54
72 68 62 57 60 64 66 66 66 60 50 45 42 40 40 38 38 39 37 36 36 41 41 38 36 35 36 36 33 34 35 33 30 34 37 39 42 42 41 40 38 35 43
32 38 48 55 62 66 60 53 51 51 49 47 48 45 44 40 36 32 28 25 21 20 20 20 20 20 18 18 19 18 20 20 18 17 19 18 19 20 19 21 19 20 24
62 67 68 73 64 63 68 68 61 55 54 50 43 40 35 30 28 26 25 21 18 17 15 13 14 14 15 15 15 16 16 15 14 15 16 16 15 13 13 16 21 24 23
70 74 80 81 84 78 71 62 59 54 46 38 32 30 31 30 27 23 18 13 10 8 8 8 8 9 10 10 10 10 9 9 9 9 11 14 15 15 14 10 6 5 4
67 72 66 67 62 57 48 43 40 33 25 21 22 22 23 22 19 16 11 7 7 7 7 6 6 6 6 7 9 12 12 13 12 10 7 4 4 4 4 4 4 4 4

GFSMW_250_rhum_105.txt.gz
RH
9 9 9 9 7 7 6 7 8 7 8 10 10 9 12 13 12 12 14 15 13 11 13 14 24 30 35 47 59 49 52 55 76 76 57 67 62 60 57 54 52 50 43
8 8 8 8 7 6 6 6 5 4 4 4 5 5 5 7 9 10 9 8 10 11 12 11 15 19 23 38 54 63 43 47 53 46 65 50 56 59 58 56 56 47 45
8 6 6 6 5 4 3 3 3 3 3 3 3 3 3 4 4 4 5 6 7 8 10 11 13 16 23 28 34 47 45 43 52 43 35 49 70 54 68 56 52 43 45
6 6 5 4 4 4 3 3 3 3 3 4 3 3 3 3 3 3 4 4 5 5 7 9 12 10 11 14 19 21 21 25 30 36 42 36 46 63 65 77 53 51 46
5 4 4 4 3 3 3 3 3 3 3 3 3 3 3 3 3 4 4 4 5 6 5 5 5 6 6 9 13 19 22 22 22 29 35 38 43 43 43 62 60 53 52
4 3 3 3 3 3 3 3 3 3 3 3 3 3 3 4 4 4 4 5 6 6 5 4 4 5 6 8 10 16 17 20 21 28 30 30 36 36 46 56 65 65 57
6 5 4 4 4 3 3 3 3 3 3 3 3 3 4 4 4 5 6 6 6 6 5 5 5 5 6 8 11 15 18 22 22 25 30 32 38 39 44 51 58 61 63
9 9 7 6 4 4 4 4 4 4 4 4 4 4 4 4 5 6 6 7 7 7 6 6 5 6 8 9 11 11 14 20 29 35 37 38 42 51 49 53 56 66 71
16 14 11 8 7 6 5 4 4 4 4 4 4 4 5 5 5 6 7 7 7 8 8 7 6 7 7 7 8 8 8 11 22 36 45 54 53 51 56 60 63 74 71
16 17 17 16 11 8 7 6 6 6 5 5 5 4 5 5 6 6 7 8 8 8 8 8 8 8 9 10 11 12 14 18 25 32 36 40 41 40 49 49 50 42 47
17 17 26 25 22 18 15 11 8 8 8 8 9 9 8 8 9 9 8 10 9 9 9 9 9 9 10 11 11 13 14 14 14 14 14 14 15 18 17 22 38 62 66
59 49 49 42 30 29 28 27 25 18 16 12 12 11 11 11 13 13 13 13 13 12 13 14 13 13 14 15 15 16 16 16 16 16 21 28 46 60 73 84 93 100 98
63 59 50 46 40 34 39 36 38 33 35 38 45 48 41 38 41 42 45 50 47 50 50 49 46 49 44 44 39 37 27 35 34 42 59 61 80 92 87 100 98 100 99
39 39 41 37 43 43 42 49 49 52 51 55 54 55 62 65 70 66 61 62 60 56 56 52 64 73 76 76 80 80 91 90 92 100 100 100 100 100 100 100 100 100 100
46 45 46 47 46 41 40 43 39 45 45 43 47 52 59 59 63 64 65 61 53 56 61 62 67 76 73 85 99 100 100 100 100 100 100 100 100 100 100 100 100 100 100
46 44 43 42 42 43 42 42 42 43 44 42 41 41 43 44 45 44 42 42 41 40 40 41 46 57 58 70 75 80 83 88 100 100 100 100 100 100 100 100 100 100 100
44 43 42 42 42 42 41 40 40 40 40 40 41 41 41 43 45 47 45 42 41 41 42 43 43 43 43 42 46 49 49 48 48 56 66 78 86 93 100 100 100 100 100
44 46 47 47 47 48 49 51 52 54 54 54 54 53 50 47 43 41 40 39 39 40 40 38 38 38 38 38 39 41 42 44 44 44 44 47 57 64 71 86 98 100 100
58 56 54 55 58 63 68 70 66 65 66 64 66 67 65 61 59 59 58 56 54 53 52 51 50 47 46 46 45 44 48 44 41 40 39 41 42 43 42 40 44 48 66
62 64 68 73 75 72 69 71 74 84 82 76 71 63 62 55 50 49 48 49 51 52 54 58 56 58 58 55 53 53 54 53 52 52 54 52 50 48 45 44 42 43 45
48 46 44 43 46 50 51 57 55 52 51 48 43 41 38 38 39 39 36 31 28 28 27 27 27 28 31 33 33 32 32 34 44 51 55 57 61 63 62 60 61 58 54
48 51 54 54 54 59 62 63 60 57 55 54 52 49 46 40 38 34 29 25 24 22 22 23 24 25 25 25 26 25 23 24 28 33 32 33 37 42 47 51 55 60 60
52 56 62 62 64 64 66 64 68 60 50 44 39 34 28 26 24 22 18 16 15 14 15 17 19 19 16 14 12 12 10 9 9 10 14 17 18 18 18 18 20 24 29
56 62 59 61 63 73 64 62 58 56 49 42 35 26 21 19 17 16 15 14 14 15 15 15 13 12 10 8 7 6 5 5 5 5 5 6 6 7 7 8 9 10 13
41 44 44 49 46 50 55 60 52 48 40 36 27 21 18 16 14 13 13 13 13 12 10 8 7 6 6 6 5 5 4 4 4 5 5 5 5 5 6 7 8 8 9
57 55 49 49 49 62 62 50 50 50 39 35 28 19 15 12 12 12 12 10 9 7 6 6 6 6 5 6 8 8 8 8 7 6 5 4 4 4 5 5 6 6 7

GFSMW_250_rhum_108.txt.gz
RH
12 13 14 13 11 10 10 10 10 9 8 7 7 9 12 15 16 17 18 20 20 15 10 12 14 15 16 22 24 30 53 35 41 47 77 72 67 60 65 54 84 89 91
10 10 10 10 10 9 8 8 7 6 5 4 3 3 4 6 6 8 11 13 9 8 7 9 9 10 10 11 15 21 36 46 35 30 51 62 64 82 77 57 54 89 94
17 16 12 10 8 8 7 6 5 4 3 3 4 4 4 4 4 4 4 4 5 6 6 7 10 8 8 13 19 18 18 29 37 31 34 50 68 83 89 73 53 46 55
14 10 8 6 6 6 6 5 4 4 4 4 4 4 4 4 4 4 4 4 4 4 4 4 5 6 7 8 10 17 20 21 25 30 31 31 40 66 72 67 63 54 52
11 7 6 6 5 4 4 4 4 4 3 3 3 3 3 4 4 4 4 4 4 5 5 5 6 7 6 5 5 6 7 9 13 19 22 23 29 40 60 64 64 57 48
10 7 5 5 5 5 5 4 3 3 3 3 3 3 3 3 4 4 4 4 4 5 5 6 6 6 6 5 5 6 6 6 6 9 14 20 22 30 35 45 49 54 60
8 9 8 7 6 6 5 4 4 4 3 3 3 3 3 3 3 3 4 4 4 5 6 6 7 7 6 6 7 7 6 5 6 6 7 8 12 17 23 32 43 43 34
7 7 10 11 10 9 8 6 5 4 4 3 3 3 4 4 4 4 4 4 4 4 5 5 6 6 6 7 8 7 7 6 6 7 7 7 8 11 16 24 38 38 38
12 13 13 17 16 12 8 7 6 5 4 4 4 4 4 4 4 4 5 5 5 5 5 5 6 6 7 8 8 8 8 8 8 8 8 10 12 14 17 20 25 32 31
16 15 14 15 14 13 13 11 9 7 6 5 5 5 5 5 5 6 6 6 6 7 7 7 7 7 8 8 8 8 8 8 8 8 9 15 11 12 12 12 12 15 21
20 17 28 43 50 41 30 22 18 14 13 10 8 7 7 7 6 6 6 6 6 7 7 7 8 8 8 8 9 9 9 10 11 11 11 16 16 12 13 16 19 20 18
47 43 35 44 41 43 37 30 34 30 24 24 23 17 13 11 11 11 11 11 11 10 11 11 12 12 11 10 10 11 12 14 16 16 19 49 27 16 16 17 19 20 19
60 50 54 56 53 46 46 40 41 40 38 47 46 47 46 44 39 38 32 27 24 22 22 22 19 18 18 16 16 14 16 15 16 18 22 20 22 20 20 30 36 38 41
49 46 46 45 44 43 40 38 38 39 41 43 43 45 48 49 53 51 54 53 48 48 49 49 51 52 49 55 53 49 42 42 39 34 30 30 35 37 52 46 39 44 72
42 42 42 41 40 38 38 38 37 36 35 35 36 36 37 37 39 44 48 50 54 56 58 59 59 56 53 60 71 76 72 72 73 83 83 76 81 78 84 79 96 85 77
47 45 44 44 43 41 39 39 40 41 42 43 43 44 44 44 45 45 44 44 43 43 41 38 37 36 38 40 46 62 73 77 74 73 70 65 77 100 100 98 100 100 100
50 53 50 46 50 56 57 57 57 58 59 61 61 60 59 55 49 47 44 42 40 38 36 35 34 35 37 39 39 38 38 40 45 58 68 72 78 81 91 93 92 96 97
55 53 55 56 54 56 58 61 68 71 68 63 68 70 67 59 53 50 48 46 46 47 47 45 42 42 38 36 35 35 36 37 40 40 38 37 40 45 52 72 82 87 96
46 45 49 59 62 63 61 62 63 67 66 66 67 64 58 55 54 52 48 45 41 37 35 36 37 36 35 35 36 39 41 42 40 38 36 34 36 39 41 40 40 41 43
50 48 53 55 63 69 68 74 72 71 68 65 61 58 52 43 38 33 27 23 21 21 21 20 21 22 24 25 23 24 27 30 37 42 40 37 33 35 39 38 38 39 40
53 60 64 62 63 58 66 81 82 73 68 67 66 62 59 55 51 39 30 23 21 16 13 12 12 12 12 13 14 13 14 15 17 19 22 26 29 31 35 40 39 43 41
50 50 48 50 49 50 51 56 59 62 65 61 52 45 40 35 27 24 24 22 19 16 13 11 10 10 10 9 10 10 10 10 10 12 13 14 16 15 16 18 21 21 22
89 74 64 66 66 62 55 56 60 55 53 49 49 42 33 33 27 21 17 16 14 11 10 10 10 11 10 10 10 10 10 9 8 6 6 6 6 5 6 6 8 9 11
95 82 86 74 84 74 66 57 51 54 60 52 56 57 42 43 29 18 16 14 12 9 9 9 9 9 8 7 6 5 5 4 4 4 4 4 4 4 4 4 4 4 4
76 78 73 78 79 83 73 73 70 68 63 66 68 61 52 43 35 25 16 13 11 9 8 8 6 6 5 5 5 5 4 4 4 4 4 5 5 6 6 6 6 6 6
88 75 71 68 72 70 71 78 89 80 80 80 63 54 47 39 32 25 16 13 10 9 8 6 5 5 6 7 9 9 8 6 4 3 3 2 2 2 2 2 2 2 3

GFSMW_250_rhum_111.txt.gz
RH
17 14 13 13 14 14 13 13 13 10 10 10 10 10 10 10 12 12 11 14 12 12 16 15 12 9 9 15 19 20 22 22 26 26 40 42 42 50 53 81 87 61 56
12 12 12 12 12 11 11 10 10 8 8 8 6 5 5 5 5 5 5 6 6 7 8 8 6 7 7 9 9 12 15 14 15 17 19 25 34 39 46 60 88 82 68
16 13 12 11 11 10 10 9 8 7 6 5 5 5 5 5 4 4 4 4 5 6 6 5 4 4 5 7 10 9 8 11 17 15 11 13 19 37 37 39 50 92 81
18 14 14 13 11 9 7 6 6 6 6 6 5 5 4 4 4 4 4 5 4 5 5 6 6 5 5 5 6 6 9 10 13 14 12 10 13 18 22 32 33 40 57
14 16 13 11 8 7 7 6 6 5 4 4 3 3 3 3 3 3 4 4 4 4 4 4 5 5 5 5 6 6 7 6 7 8 8 8 10 15 19 26 37 38 41
14 13 11 10 9 7 6 5 5 5 5 4 4 3 3 3 3 3 3 3 4 4 4 4 4 4 5 6 6 6 6 6 5 6 7 6 7 9 9 12 24 30 37
12 9 7 7 8 8 8 9 9 9 8 6 5 4 3 3 3 3 3 3 3 3 3 4 4 4 5 6 6 6 6 6 6 6 7 8 8 8 8 8 9 10 11
14 13 10 10 12 16 17 17 13 10 8 7 6 5 5 4 4 4 4 4 4 4 4 4 4 4 4 5 5 6 6 6 7 7 7 7 8 9 9 9 10 11 9
14 12 21 21 26 25 23 20 14 13 13 10 9 8 7 6 5 4 4 4 4 5 5 5 5 5 5 5 5 6 6 6 6 6 7 8 8 8 7 8 8 9 8
36 29 31 34 33 33 22 26 27 21 17 18 19 11 9 9 9 8 8 7 7 7 7 7 7 6 6 6 6 6 6 6 7 7 7 8 7 8 9 9 10 10 9
54 54 53 55 52 51 49 46 46 44 36 31 27 27 24 16 12 10 10 10 10 10 9 8 9 9 10 10 9 9 9 9 9 9 9 10 11 11 12 11 13 12 10
56 51 48 44 42 42 41 39 38 37 37 39 36 35 35 39 42 41 34 29 22 21 19 15 14 14 14 13 12 11 11 10 10 11 11 10 11 12 12 13 19 31 19
47 46 46 45 42 41 43 44 44 43 41 40 40 41 42 41 40 41 42 51 57 58 59 58 53 44 36 29 22 19 18 18 19 21 19 17 14 14 14 17 22 37 42
51 51 50 49 53 56 57 55 53 51 50 51 53 54 53 52 51 49 44 40 38 37 36 40 46 47 49 51 47 46 50 54 45 39 33 31 31 35 21 23 30 24 33
60 58 57 61 61 62 62 66 66 66 66 64 63 58 56 59 60 57 54 54 55 54 52 49 44 40 38 37 38 38 36 42 48 43 48 53 52 54 64 58 53 54 64
48 51 51 52 54 58 57 56 54 52 51 49 49 53 54 54 51 46 44 41 39 41 40 37 36 35 36 41 42 41 40 38 37 35 39 45 43 42 49 56 58 62 57
49 46 48 51 55 55 53 53 56 47 47 52 65 78 72 62 55 51 45 37 30 28 26 25 25 24 24 26 28 30 29 28 30 34 36 35 35 37 40 44 52 44 54
57 56 55 52 54 51 58 68 71 72 75 78 79 73 63 57 53 52 46 37 34 32 33 29 25 20 16 14 13 15 17 20 23 26 29 32 34 35 38 41 43 44 42
64 54 51 54 54 52 57 55 57 56 60 63 60 60 59 54 50 48 43 38 34 35 35 27 21 19 16 14 12 10 10 12 14 14 14 17 21 24 27 31 37 41 41
52 55 63 66 64 61 57 57 57 60 59 56 59 53 49 52 40 37 30 26 24 23 21 15 14 14 14 13 12 9 8 7 9 11 11 11 12 13 15 17 18 29 36
57 52 59 64 64 60 59 59 64 62 64 63 62 65 55 58 48 34 28 20 18 17 16 16 12 11 10 9 8 7 7 7 7 7 8 8 9 10 10 10 11 13 16
69 61 62 64 65 72 80 92 74 76 83 84 87 83 69 71 52 42 38 24 18 16 15 13 11 10 9 8 7 7 7 7 7 7 7 7 7 7 7 8 9 9 9
82 84 83 93 83 83 81 92 92 88 91 87 90 86 83 72 65 52 44 32 19 15 13 12 12 11 8 7 7 6 5 5 5 5 5 4 4 4 4 4 5 5 6
86 87 86 91 84 92 78 86 86 96 96 96 98 94 86 79 66 49 34 27 18 13 12 11 13 10 8 7 6 5 4 4 4 4 4 5 5 5 5 4 4 4 4
94 92 90 88 96 86 80 84 82 83 92 91 99 83 81 68 73 60 46 27 16 13 11 12 11 9 8 6 5 5 7 8 7 6 4 3 2 2 2 2 3 3 3
86 87 100 100 98 98 100 94 89 86 92 92 98 92 86 78 83 75 46 23 15 12 10 10 10 9 6 6 8 13 9 5 3 3 3 3 3 3 3 3 3 2 2